Home   Weather   Birmingham   Past weeks
Flag for USA

Past Weather in Birmingham, Alabama, USA — Yesterday and Last 2 Weeks

Now
81 °F

Partly cloudy.


Feels Like: 85 °F
Forecast: 84 / 72 °F
Wind: 14 mph from Southwest

Location: Birmingham International Airport

Current Time: Jun 20, 2019 at 2:19:39 am

Latest Report: Jun 20, 2019 at 12:53 am


Visibility: 10 mi

Pressure: 29.81 "Hg

Humidity: 72%

Dew Point: 71 °F

Location of BirminghamLocation

Past Weather in Birmingham — Graph

°F

Birmingham Temperature Yesterday

Maximum temperature yesterday: 90 °F (at 4:53 pm)
Minimum temperature yesterday: 72 °F (at 5:34 am)
Average temperature yesterday: 80 °F

High & Low Weather Summary for the Past Weeks

 TemperatureHumidityPressure
High93 °F (Jun 16, 3:53 pm)100% (Jun 10, 2:01 am)30.21 "Hg (Jun 10, 2:01 am)
Low58 °F (Jun 14, 2:53 am)33% (Jun 14, 4:53 pm)29.68 "Hg (Jun 7, 5:53 pm)
Average76 °F74%29.93 "Hg
* Reported Jun 5 12:53 am — Jun 20 12:53 am, Birmingham. Weather by CustomWeather, © 2019

Note: Actual official high and low records may vary slightly from our data, if they occured in-between our weather recording intervals... More about our weather records

Advertising

Birmingham Weather History for the Previous 24 Hours

Scroll right to see more
 ConditionsComfort  
Time TempWeatherWind HumidityBarometerVisibility
12:53 am
Thu, Jun 20
81 °FPartly cloudy.14 mph72%29.81 "Hg10 mi
11:53 pm
Wed, Jun 19
81 °FPassing clouds.12 mph72%29.80 "Hg10 mi
10:53 pm81 °FPassing clouds.13 mph74%29.80 "Hg10 mi
9:53 pm81 °FPassing clouds.9 mph77%29.79 "Hg10 mi
8:53 pm82 °FPassing clouds.9 mph72%29.78 "Hg10 mi
7:53 pm84 °FBroken clouds.10 mph70%29.78 "Hg10 mi
6:53 pm87 °FBroken clouds.10 mph57%29.78 "Hg10 mi
5:53 pm89 °FBroken clouds.8 mph48%29.78 "Hg10 mi
4:53 pm90 °FPartly sunny.14 mph47%29.78 "Hg10 mi
3:53 pm89 °FBroken clouds.10 mph52%29.79 "Hg10 mi
2:53 pm89 °FBroken clouds.12 mph52%29.80 "Hg10 mi
1:53 pm87 °FScattered clouds.9 mph55%29.82 "Hg10 mi
12:53 pm87 °FPartly sunny.12 mph55%29.84 "Hg10 mi
11:53 am86 °FScattered clouds.14 mph59%29.87 "Hg10 mi
11:14 am82 °FBroken clouds.12 mph70%29.92 "Hg10 mi
11:05 am81 °FBroken clouds.9 mph72%29.92 "Hg10 mi
10:53 am82 °FScattered clouds.9 mph72%29.90 "Hg10 mi
9:53 am79 °FPartly sunny.8 mph79%29.90 "Hg10 mi
8:53 am78 °FPartly sunny.7 mph79%29.89 "Hg10 mi
8:43 am78 °FPartly sunny.6 mph79%29.92 "Hg10 mi
7:53 am76 °FBroken clouds.12 mph85%29.89 "Hg10 mi
7:21 am75 °FPartly sunny.8 mph88%29.91 "Hg10 mi
6:53 am74 °FScattered clouds.8 mph85%29.89 "Hg10 mi
6:15 am73 °FPartly sunny.No wind90%29.91 "Hg10 mi
5:53 am72 °FBroken clouds.No wind93%29.88 "Hg10 mi
5:34 am72 °FPassing clouds.No wind93%29.90 "Hg10 mi
5:05 am73 °FMostly cloudy.6 mph88%29.91 "Hg10 mi
4:03 am73 °FOvercast.6 mph90%29.91 "Hg10 mi
3:34 am74 °FMostly cloudy.10 mph88%29.90 "Hg10 mi
3:17 am74 °FOvercast.10 mph88%29.91 "Hg10 mi
2:53 am74 °FOvercast.7 mph91%29.88 "Hg10 mi
Weather by CustomWeather, © 2019

See weather overview